Погода в Нанаймо

Канада     49°09′55″N   123°56′02″W
темп.,
°C
ветер,
м/с
пор.,
м/с
влажн.,
%
обл.,
%
осадки,
мм/ч
давл.,
гПа
погр.,
м
22 октября, пт
пт2223:00+11юв6895100 2.4 1007186
02:00+11вюв5797100 2.5 1005206
05:00+11юв4795100 2.9 1005179
08:00+11вюв3495100 0.4 1005120
11:00+11вюв459489 1.2 1006133
14:00+11вюв569792 1.3 1005270
17:00+11вюв569697 2.3 1005230
20:00+9ююв3391100 0.4 100587
23 октября, сб
сб2323:00+9ююв2287100 0.4 100568
02:00+9юв4788100 0.1 1005255
05:00+9вюв5993100 1.0 1004546
08:00+9вюв81193100 2.4 1003728
11:00+9вюв91296100 5.5 1003862
14:00+10вюв91095100 1.4 1004703
17:00+9вюв71093100 1.9 1004603
20:00+10вюв679499 0.1 1003439
24 октября, вс
вс2423:00+9юв5793100 0.4 1002374
02:00+9юв7119093 0.6 999815
05:00+9юв51091100 0.8 995477
08:00+9ююв4786100 0.0 988278
11:00+9ююв51082100 0.0 985556
14:00+9вюв101787100 3.4 9831440
17:00+9вюв81196100 14.5 986696
20:00+9в91194100 3.7 987802
25 октября, пн
пн2523:00+10вюв111485100 4.7 9891132
02:00+10вюв81282100 1.0 9901035
05:00+10вюв91381100 1.4 9901214
08:00+10вюв91674100 0.4 9881425
11:00+8вюв101490100 8.2 9901338
14:00+8вюв111787100 3.6 9901589
17:00+9вюв91785100 7.8 9901780
20:00+9вюв101692100 6.4 9901375
26 октября, вт
вт2623:00+9вюв121695100 14.8 9911206
02:00+9в131995100 6.1 9901240
05:00+9в121794100 15.4 9901028
08:00+8сз5688100 4.4 996402
11:00+9вюв4588100 4.4 1000428
14:00+10вюв3491100 1.1 1000249
17:00+11вюв3584100 1.3 100195
20:00+9ююв4792100 0.9 1002336